sat.trackr.live / text

‹ back to catalog

STARLINK-3792

NORAD 52339 · 2022-045J

PAYLOAD ACTIVE UNKNOWN

§ Identity

Operator
Country
US
Launch date
2022-04-29
Launch site
AFETR
Launch vehicle
Mass (kg)
RCS (m²)

Purposes: comms

External: N2YO · Heavens-Above · Gunter

§ Orbital elements

Epoch: 2026-09-20T04:00:03.000096Z

Period
93.79 min
Inclination
53.1613°
Eccentricity
0.0001019
Mean motion
15.35394160 rev/d
Perigee alt
459.1 km
Apogee alt
460.4 km
Semi-major
6,837.9 km
B*
1.9357e-4
RAAN
53.0605°
Arg perigee
76.7957°
Mean anomaly
23.2966°
Rev number
583

§ Raw data

STARLINK-37921 52339U 22045J   26263.16670139  .00006376  00000+0  19357-3 0  99962 52339  53.1613  53.0605 0001019  76.7957  23.2966 15.35394160  5835

JSON: /api/v1/satellites/52339 · /tle

For live sub-satellite position, see the globe view (requires WebGL).

§ Visibility from observer

Set your observer location to see the next 7 days of passes ≥ 10°. The values pass through the URL so the page stays shareable.

No JS? Fill the form by hand. The geolocation button needs JavaScript.